Weather History for Madrid Cuatro Vientos, Spain

Change the Weather History Date:

Tuesday, October 30, 2012

  Actual Average Record
Temperature  
Mean Temperature 44 °F -  
Max Temperature 46 °F 62 °F 78 °F (2001)
Min Temperature 42 °F 45 °F 37 °F (1997)
Degree Days  
Heating Degree Days 21    
Moisture  
Dew Point 39 °F    
Average Humidity 81    
Maximum Humidity 93    
Minimum Humidity 49    
Precipitation  
Precipitation 0.00 in - - ()
Sea Level Pressure  
Sea Level Pressure 29.55 in    
Wind  
Wind Speed 3 mph ()    
Max Wind Speed 6 mph    
Max Gust Speed -    
Visibility 4.7 miles    
Events Rain    
Averages and records for this station are not official NWS values.
T = Trace of Precipitation, MM = Missing Value Source: Averaged Metar Reports

Daily Weather History Graph

Daily Weather History Graph

Search for Another Location

Airport:

Trip Planner

Search our weather history database for the weather conditions in past years. The results will help you decide how hot, cold, wet, or windy it might be!

Date:

Astronomy

Oct. 30, 2012 Rise Set
Actual Time 7:42 AM CET 6:14 PM CET
Civil Twilight 7:14 AM CET 6:42 PM CET
Nautical Twilight 6:42 AM CET 7:14 PM CET
Astronomical Twilight 6:10 AM CET 7:45 PM CET
Moon 6:34 PM CET (10/30) 8:16 AM CET (10/30)
Length of Visible Light 11h 27m
Length of Day
10h 31m
Full, 100% of the Moon is Illuminated
Oct 30
Full
Nov 7
Last Quarter
Nov 13
New
Nov 20
First Quarter
Nov 28
Full

Hourly Weather History & Observations

Time (CET) Temp. Windchill Dew Point Humidity Pressure Visibility Wind Dir Wind Speed Gust Speed Precip Events Conditions
7:00 AM 44.6 °F - 26.6 °F 49% 29.68 in 6.2 mi Variable 1.2 mph - N/A   Scattered Clouds
7:30 AM 44.6 °F - 26.6 °F 49% 29.68 in 6.2 mi Variable 2.3 mph - N/A   Scattered Clouds
8:00 AM 44.6 °F - 26.6 °F 49% 29.68 in 6.2 mi Variable 2.3 mph - N/A   Mostly Cloudy
9:00 AM 42.8 °F - 30.2 °F 61% 29.68 in 6.2 mi Variable 2.3 mph - N/A Rain Light Rain
9:30 AM 42.8 °F - 33.8 °F 70% 29.68 in 6.2 mi Variable 1.2 mph - N/A Rain Light Rain
10:00 AM 42.8 °F - 41.0 °F 93% 29.65 in 6.2 mi Variable 2.3 mph - N/A Rain Light Rain
10:30 AM 42.8 °F - 41.0 °F 93% 29.65 in 5.6 mi Variable 2.3 mph - N/A Rain Rain
11:30 AM 42.8 °F 41.1 °F 37.4 °F 81% 29.62 in 4.3 mi NNE 3.5 mph - N/A Rain Rain
12:00 PM 42.8 °F 41.1 °F 39.2 °F 87% 29.62 in 4.3 mi NNE 3.5 mph - N/A Rain Rain
12:30 PM 42.8 °F 41.1 °F 39.2 °F 87% 29.62 in 4.3 mi NNE 3.5 mph - N/A Rain Rain
1:00 PM 44.6 °F - 39.2 °F 81% 29.59 in 4.3 mi Variable 2.3 mph - N/A Rain Rain
1:30 PM 44.6 °F - 41.0 °F 87% 29.59 in 4.3 mi Variable 1.2 mph - N/A Rain Rain
1:33 PM 44.6 °F - 39.2 °F 81% 29.56 in 1.9 mi Variable 2.3 mph - N/A Rain Rain
2:00 PM 44.6 °F 42.2 °F 39.2 °F 81% 29.56 in 3.1 mi NE 4.6 mph - N/A Rain Rain
2:30 PM 44.6 °F 43.1 °F 41.0 °F 87% 29.53 in 4.3 mi NE 3.5 mph - N/A Rain Light Rain
3:00 PM 44.6 °F 43.1 °F 41.0 °F 87% 29.50 in 5.0 mi Variable 3.5 mph - N/A Rain Light Rain
3:30 PM 44.6 °F 41.4 °F 41.0 °F 87% 29.50 in 5.0 mi ENE 5.8 mph - N/A Rain Light Rain
3:44 PM 44.6 °F 42.2 °F 41.0 °F 87% 29.50 in 2.5 mi NE 4.6 mph - N/A Rain Rain
4:00 PM 44.6 °F - 41.0 °F 87% 29.50 in 1.9 mi Variable 2.3 mph - N/A Rain Rain
4:04 PM 44.6 °F 43.1 °F 41.0 °F 87% 29.50 in 1.6 mi NE 3.5 mph - N/A Rain Rain
4:30 PM 44.6 °F 43.1 °F 41.0 °F 87% 29.50 in 2.5 mi NE 3.5 mph - N/A Rain Light Rain
5:00 PM 46.4 °F 44.3 °F 41.0 °F 81% 29.47 in 3.7 mi NNE 4.6 mph - N/A Rain Light Rain
5:08 PM 46.4 °F 45.2 °F 41.0 °F 81% 29.47 in 5.0 mi NNE 3.5 mph - N/A   Light Drizzle
5:30 PM 46.4 °F 44.3 °F 42.8 °F 87% 29.47 in 5.6 mi NE 4.6 mph - N/A   Light Drizzle
6:00 PM 46.4 °F - 41.0 °F 81% 29.47 in 6.2 mi Variable 2.3 mph - N/A   Mostly Cloudy
6:30 PM 46.4 °F 45.2 °F 41.0 °F 81% 29.47 in 3.7 mi North 3.5 mph - N/A Rain Light Rain
7:00 PM 46.4 °F 44.3 °F 41.0 °F 81% 29.47 in 3.1 mi North 4.6 mph - N/A Rain Light Rain
7:30 PM 46.4 °F - 41.0 °F 81% 29.47 in 5.0 mi Calm Calm - N/A Rain Light Rain
8:00 PM 44.6 °F - 41.0 °F 87% 29.47 in 6.2 mi Variable 1.2 mph - N/A   Mostly Cloudy
8:30 PM 44.6 °F 43.1 °F 41.0 °F 87% 29.47 in 6.2 mi North 3.5 mph - N/A   Mostly Cloudy
9:00 PM 44.6 °F 41.4 °F 41.0 °F 87% 29.47 in 6.2 mi North 5.8 mph - N/A   Mostly Cloudy
9:30 PM 44.6 °F 41.4 °F 41.0 °F 87% 29.50 in 6.2 mi North 5.8 mph - N/A   Mostly Cloudy
10:00 PM 44.6 °F 41.4 °F 39.2 °F 81% 29.50 in 5.0 mi North 5.8 mph - N/A Rain Light Rain